Kosmos-2066

operational
NORAD ID: 20551 Int'l Des: 1990-029 Owner: UNKS Country: SU
LEOCIRCULAR

About Kosmos-2066

Description loading...

Live Position

Loading 3D Globe...

Upcoming Passes

Altitude History

Altitude vs Time

uPlot chart will show altitude changes over time

Two-Line Element Set

1 20551U 90029C 26061.55763917 .00000007 00000-0 13478-3 0 9994
2 20551 73.9788 96.2258 0050344 248.0424 266.3747 12.59711600651121
Epoch: Mar 2, 2026 • Age: 29 hours

Current Status

Altitude 1404.2 km
Velocity 7.17 km/s
Sub-Earth Point -19.00°S, 46.94°E
Launch Date Apr 6, 1990
Age 35.9 years
Type other

Technical Details

Classification Payload
Mass 60.00 kg
Dry Mass 60.00 kg
Total Mass 60.00 kg
Length 0.80 m
Diameter 0.80 m
Span 0.80 m
Shape Poly
Manufacturer NPOPM
Bus Type Strela-1 11F625
Phase Status In Orbit
Owner/State UNKS/SU

Large Constellations

Loading constellations...